Regional Weather Roundup
Issued by NWS Nashville, TN

Home | Current Version | Previous Version | Text Only | Print | Product List | Glossary On
Versions: 1 2 3 4 5 6 7 8 9 10 11 12 13 14 15 16 17 18 19 20 21 22 23 24 25 26 27
000
ASUS44 KOHX 280110
RWROHX
MIDDLE TENNESSEE HOURLY WEATHER ROUNDUP
NATIONAL WEATHER SERVICE NASHVILLE TN
800 PM CDT SAT AUG 27 2016

NOTE: "FAIR" INDICATES FEW OR NO CLOUDS BELOW 12,000 FEET WITH
NO SIGNIFICANT WEATHER AND/OR OBSTRUCTIONS TO VISIBILITY.

* THESE REPORTS ARE NOT UNDER NWS QUALITY CONTROL AND MAY NOT
  REPORT WEATHER SUCH AS PRECIPITATION AND FOG.


TNZ005>011-023>034-057-059-062>066-078-080-280200
...NORTHERN MIDDLE TENNESSEE...

CITY           SKY/WX    TMP DP  RH WIND       PRES   REMARKS
CLARKSVILLE    CLOUDY    75  71  87 E3        30.08R
CROSSVILLE     PTCLDY    76  69  79 W7        30.18R
NASHVILLE      CLOUDY    75  71  87 NE3       30.10R
WEST NASHVILLE CLEAR     72  72 100 CALM      30.08R
SPARTA         CLEAR     75  72  88 CALM      30.12S
SPRINGFIELD    CLEAR     73  73 100 W6        30.08R FOG
$$
TNZ056-058-060-061-075>077-079-093>097-280200
...SOUTHERN MIDDLE TENNESSEE...

CITY           SKY/WX    TMP DP  RH WIND       PRES   REMARKS
COLUMBIA       CLEAR     77  77 100 NE3       30.07R
FAYETTEVILLE   MOCLDY    81  75  83 S6        30.08S
MCMINNVILLE    CLEAR     79  77  94 E3        30.12R
SHELBYVILLE    CLEAR     79  73  83 CALM      30.10R
TULLAHOMA      CLEAR     79  72  78 E7        30.11R
WINCHESTER     PTCLDY    77  73  88 CALM      30.10R
$$


...KEY TO REMARKS...
VSB - VISIBILITY IN MILES
WCI - WIND CHILL INDEX
HX  - HEAT INDEX





USA.gov is the U.S. government's official web portal to all federal, state and local government web resources and services.